Погода Рудная Пристань

Погода Рудная Пристань : погода сейчас, прогноз погоды и архив. Всё, что Вы хотите узнать о погоде Рудная Пристань!

Хотите узнать прогноз погоды Рудная Пристань? Тогда Вам сюда: Погода Рудная Пристань

Поиск расширенной информации на нашем сайте:

Другие новости

Новости СМИ2

Главная страница сайта

Новости сайта

03.07.2017

Напоминаем, что на нашем специализированном сайте Метеоцентр.Азия вы можете получить высокодетализированные автоматические прогнозы погоды по пунктам России, СНГ и мира в авиационном формате (включающие направление и скорость ветра, видимость, явления погоды, количество и форму облачности, нижнюю и верхнюю границу облачности).

Рекомендуем: Нетбук в СВАО ремонт компьютеров компьютерная помощь одинцово VIP сервис

Погода Рудная Пристань - сегодня

Время (UTC), дата Ветер
(°,м/с) 
Видим.   Явления Облачность Т
(°С)
Тd
(°С)
f(%) Тe
(°С)
Pmin
(гПа)
dP
(гПа)
Po
(мм)
O2
(г/м3)
Тmin Tmax R s Состояние
почвы
06 23.07.17 090 (В) 20000 м    3/0 средняя, верхняя 
[Ac cast|Ci sp]
+20.2 +15.1 72 +29  1005.3  -1.9  751  279           
09 23.07.17 070 (В) 20000 м    6/0 средняя, верхняя 
[Ac trans|Ci sp]
+19.2 +14.4 74 +28  1004.2  -1.2  750  279    +21       
12 23.07.17 290 (З) 20000 м    8/0 средняя, верхняя 
[Ac trans|Ci sp]
+15.8 +14.2 90 +24  1004.6  0.4  750  283           
15 23.07.17 тихо ()   20000 м    3/0 верхняя 
[Ci sp]
+14.9 +14.2 96 +22  1003.4  -1.2  750  283           
18 23.07.17 270 (З) 20000 м    6/0 верхняя 
[Ci sp]
+14.9 +14.4 97 +24  1001.9  -1.5  748  283           
21 23.07.17 260 (З) 20000 м    10/3 600 м средняя, верхняя 
[Sc|Ac trans|Ci sp]
+15.2 +14.8 97 +25  1001.4  -0.5  748  282  +14.3        влажная 
00 24.07.17 100 (В) 20000 м    10/10 600 м кучево-дожд. 
[Cb cap]
+17.3 +15.7 90 +28  1001  -0.3  748  280           
03 24.07.17 110 (В) 20000 м    8/6 600 м кучево-дожд., средняя, верхняя 
[Cb cap|Ac lent|Ci sp]
+19.1 +16.5 85 +31  1000.1  -0.9  747  278           
06 24.07.17 090 (В) 20000 м    4/3 600 м кучево-дожд., средняя 
[Cb cap|Ac cast]
+20.7 +17.2 80 +34  998.4  -1.7  746  276           
12 24.07.17 070 (В) 10 км  гроза, ливневой дождь  10/10 600 м кучево-дожд. 
[Cb cap]
+17.7 +17.1 96 +32  1000.3  2.2  747  279           
15 24.07.17 270 (З) 20000 м  {гроза, ливн. осадки}  3/3 300 м 
[St]
+15.7 +15.3 97 +26  1000.2  -0.1  747  281           
18 24.07.17 300 (СЗ) 20000 м  {гроза, ливн. осадки}  ясно 
+14.4 +14.2 99 +22  1000.6  0.4  747  283           
21 24.07.17 300 (СЗ) 20000 м    3/0 средняя, верхняя 
[Ac lent|Ci sp]
+15.1 +14.8 98 +24  1001  0.2  748  282  +13.5      влажная 
00 25.07.17 280 (З) 4-10{10}  20000 м    3/1 600 м кучево-дожд., средняя 
[Cb cap|Ac lent]
+22.9 +7.6 37 +23  1001.1  0.4  748  277           
03 25.07.17 280 (З) 4{12}  20000 м    3/3 600 м кучево-дожд. 
[Cb cap]
+24.3 +9.2 38 +25  1000.9  -0.2  748  275           
06 25.07.17 280 (З) 5-11{11}  20000 м    4/4 600 м кучево-дожд. 
[Cb cap]
+25 +8 34 +25  1001.6  0.7  748  275           
09 25.07.17 250 (З) 2{11}  20000 м    3/3 600 м кучево-дожд. 
[Cb cap]
+24 +9 38 +24  1003.2  1.6  749  276    +25.4       
12 25.07.17 320 (СЗ) 20000 м    1/1 600 м 
[Sc diur, vesp]
+17.9 +10.5 62 +21  1006  2.7  752  282           
15 25.07.17 260 (З) 20000 м    ясно 
+12.6 +11.6 94 +17  1006.7  0.6  752  287           
18 25.07.17 280 (З) 20000 м    ясно 
+12.8 +11.8 94 +18  1006.3  -0.3  752  287           
21 25.07.17 300 (СЗ) 20000 м    1/0 средняя 
[Ac lent]
+18.9 +12.7 67 +25  1007.4  1.1  753  281  +10.8        влажная 
00 26.07.17 110 (В) 20000 м    8/3 600 м верхняя 
[Cu Sc|Ci]
+22.3 +14.2 60 +30  1007.8  0.5  753  278           
03 26.07.17 260 (З) 20000 м    4/1 600 м верхняя 
[Sc|Ci fib]
+27.3 +7.7 29 +27  1007.2  -0.6  752  274           
06 26.07.17 100 (В) 20000 м    4/3 600 м верхняя 
[Sc|Ci fib]
+24.8 +13.5 49 +31  1007.3  0.2  753  275           
12 26.07.17 320 (СЗ) 20000 м    3/3 600 м 
[Sc]
+20.3 +13.6 65 +27  1009.6  1.8  754  280           
Время (UTC), дата Ветер
(°,м/с) 
Видим.   Явления Облачность Т
(°С)
Тd
(°С)
f(%) Тe
(°С)
Pmin
(гПа)
dP
(гПа)
Po
(мм)
O2
(г/м3)
Тmin Tmax R s Состояние
почвы

Для получения пояснительной информации подведите курсор к названию столбца.

ПОГОДА Рудная Пристань - архив

Всё, что Вы хотите узнать о погоде Рудная Пристань - удобно и подробно!

Выберите нужную дату (начиная с 1 января 2015* года) и нажмите кнопку "Найти".
Будут отображены архивные сводки погоды по пункту Рудная Пристань, начиная с указанной даты.


Отображать данные в формате CSV (для использования в таблицах Excel)


Внимание! Наш архив погоды предназначен исключительно для личного некоммерческого использования в познавательных целях. Если Вам необходимы официальные справки о состоянии погоды (для производственных, юридических, коммерческих и т.п. целей), обращайтесь в органы Росгидромета.

*Примечание: данная дата относится к архиву по метеостанциям СССР (Россия, СНГ, Балтия).
Архив по метеостанциям Зарубежной Европы и Азии (кроме Китая) хранится 10 дней, по другим регионам земного шара (Китай, Африка, Америка, Австралия, Океания) - 1 день.

Рудная Пристань - район местоположения метеостанции


Название, широта, долгота, высота метеостанции:
Рудная Пристань 44.4°ш. 135.9°д. 34 м над ур. моря [Российская Федерация]

Дополнительная информация

В oтличие oт бoльшинства пoгoдных сайтoв мы публикуем пoдрoбную метеoинфoрмацию в детальнoм прoфессиoнальнoм фoрмате.

Характеристики температуры и влажнoсти вoздуха измеряются на высoте 2 м в тени вдали oт зданий и деревьев.
Скoрoсть ветра измеряется на высoте 10 м (на урoвне рoста челoвека скoрoсть ветра ниже в 1.5-2 раза). Если метеoстанция нахoдится в гoрoде или в лесу, тo скoрoсть ветра занижена на 2-4 м/с пo сравнению с oткрытым местoм. Скoрoсть ветра над акватoриями крупных рек и oзёр, а также на вершинах хoлмoв на 2-5 м/с выше, чем в oбычных услoвиях.
Атмoсфернoе давление в разных тoчках местнoсти мoжет значительнo oтличаться oт давления на метеoстанции, в зависимoсти oт услoвий рельефа (при пoдъёме на 10 м давление пoнижается примернo на 1 мм рт.ст.).